DELTA 1 DEB, 9568

Orbit data source: Space-Track

DELTA 1 DEB, 9568 is space debris in SSO originally from a launch on Tue, 06 Nov 1973 UTC launched from the Air Force Western Test Range (AFWTR). Debris objects in space refer to the collection of defunct objects orbiting the Earth. Examples of debris include non-operational satellites, rocket bodies, and fragments generated from explosions, collisions, or faulty payload assembly.

Loading next visibility...
Identifier
9568, 1973-086FW
Orbit
SSO
Country
Flag of USUS
Related business
Manufacturer
Unknown
Mission
Spacecraft
Bus & Motor
Unknown
Mass
Unknown
Launch date (UTC)
1973-11-06 (52 years ago)
Launch vehicle
Unknown
Launch site
Air Force Western Test Range (AFWTR)
Object type
Payload
Rocket body
Debris
Shape & HBR
Unknown shape, 0.1 m
Radar Cross Section
Small (<0.1 m²)

Expand to show TLE details & history
Last TLE update: 7 hours ago

TLE from 7 hours ago
0 DELTA 1 DEB
1  9568U 73086FW  25293.08781284  .00001240  00000-0  11805-1 0  9994
2  9568 101.4867 154.0222 0356898 255.9204 263.8906 12.08304549275980
Epoch: 2025-10-20T02:06Z
TLE epoch observation values (Epoch: 2025-10-20T02:06:27.029Z)
Latitude
23.73897°
Longitude
-81.28291°
Altitude
1,686.939 km
Speed
7.015 km/s
True Right ascension
22h 36m 29s
True Declination
23° 37' 37"
Sunlit
Object was in full shadow at epoch
Visualization orbit readout
Latitude
Unknown
Longitude
Unknown
Altitude
Unknown
Speed
Unknown
Apparent Right ascension
Unknown
Apparent Declination
Unknown
Sunlit
N/A
Visualization observer readout
Local Sidereal Time
04:31:34
Azimuth
Unknown
Elevation
Unknown
Doppler factor
Unknown
Orbital elements
Apogee altitude
1,927.693 km
Perigee altitude
1,355.256 km
Semi-major axis
8,019.612 km
Eccentricity
0.03569
Inclination
101.4867°
RAAN
154.0222°
Arg. of periapsis
255.9204°
True anomaly
259.84666°
Mean anomaly
263.8906°
Eccentric anomaly
261.8663°
Mean motion
3.02213 °/min
Orbital period
119.12 mins
BSTAR
0.011805
Loading maneuver chart data...
Computing Atmospheric mass density...
Loading historical data...
Loading historical data...
Loading historical data...
Loading historical data...
Loading historical data...
Loading historical data...
Loading historical data...

Documentation

Showing up to 5 results
|